<?xml version="1.0" encoding="UTF-8" standalone="no" ?>
<gpx xmlns="http://www.topografix.com/GPX/1/1" xmlns:xsi="http://www.w3.org/2001/XMLSchema-instance" xsi:schemaLocation="http://www.topografix.com/GPX/1/1 http://www.topografix.com/GPX/1/1/gpx.xsd" version="1.1" creator="VisuGPX - https://www.visugpx.com">
  <metadata>
    <name>Tour Meygal</name>
    <desc><![CDATA[grp_trc:Mézenc]]></desc>
  </metadata>
  <trk>
    <name><![CDATA[Mont Gerbier de jonc]]></name>
    <cmt><![CDATA[22:27:44]]></cmt>
    <desc><![CDATA[<html dir="ltr"><head></head><body contenteditable="true">comment ...<br>
----<br>
Groupe : [import]</body></html>]]></desc>
    <trkseg>
      <trkpt lat="44.84315" lon="4.21644">
        <ele>1414</ele>
        <time>2022-05-11T18:53:28Z</time>
      </trkpt>
      <trkpt lat="44.84358" lon="4.21592">
        <ele>1414</ele>
        <time>2022-05-11T18:53:28Z</time>
      </trkpt>
      <trkpt lat="44.84378" lon="4.21531">
        <ele>1415</ele>
      </trkpt>
      <trkpt lat="44.84398" lon="4.21469">
        <ele>1415</ele>
        <time>2022-05-11T18:53:28Z</time>
      </trkpt>
      <trkpt lat="44.84412" lon="4.2142">
        <ele>1415</ele>
      </trkpt>
      <trkpt lat="44.84425" lon="4.2137">
        <ele>1415</ele>
      </trkpt>
      <trkpt lat="44.84439" lon="4.21321">
        <ele>1415</ele>
      </trkpt>
      <trkpt lat="44.84452" lon="4.21271">
        <ele>1414</ele>
        <time>2022-05-11T18:53:28Z</time>
      </trkpt>
      <trkpt lat="44.84506" lon="4.21227">
        <ele>1413</ele>
        <time>2022-05-11T18:53:28Z</time>
      </trkpt>
      <trkpt lat="44.84543" lon="4.21211">
        <ele>1412</ele>
      </trkpt>
      <trkpt lat="44.84579" lon="4.21195">
        <ele>1410</ele>
        <time>2022-05-11T18:53:28Z</time>
      </trkpt>
      <trkpt lat="44.84639" lon="4.21152">
        <ele>1408</ele>
      </trkpt>
      <trkpt lat="44.84698" lon="4.21109">
        <ele>1406</ele>
        <time>2022-05-11T18:53:28Z</time>
      </trkpt>
      <trkpt lat="44.84725" lon="4.21053">
        <ele>1404</ele>
      </trkpt>
      <trkpt lat="44.84752" lon="4.20997">
        <ele>1401</ele>
        <time>2022-05-11T18:53:28Z</time>
      </trkpt>
      <trkpt lat="44.84759" lon="4.20932">
        <ele>1399</ele>
        <time>2022-05-11T18:53:28Z</time>
      </trkpt>
      <trkpt lat="44.84785" lon="4.20872">
        <ele>1397</ele>
      </trkpt>
      <trkpt lat="44.84811" lon="4.20812">
        <ele>1394</ele>
      </trkpt>
      <trkpt lat="44.84837" lon="4.20751">
        <ele>1391</ele>
      </trkpt>
      <trkpt lat="44.84863" lon="4.20691">
        <ele>1389</ele>
        <time>2022-05-11T18:53:28Z</time>
      </trkpt>
      <trkpt lat="44.84889" lon="4.20646">
        <ele>1386</ele>
      </trkpt>
      <trkpt lat="44.84915" lon="4.206">
        <ele>1384</ele>
      </trkpt>
      <trkpt lat="44.84941" lon="4.20555">
        <ele>1381</ele>
      </trkpt>
      <trkpt lat="44.84967" lon="4.20509">
        <ele>1378</ele>
        <time>2022-05-11T18:53:28Z</time>
      </trkpt>
      <trkpt lat="44.85" lon="4.20498">
        <ele>1376</ele>
      </trkpt>
      <trkpt lat="44.85034" lon="4.20488">
        <ele>1373</ele>
      </trkpt>
      <trkpt lat="44.85067" lon="4.20477">
        <ele>1369</ele>
      </trkpt>
      <trkpt lat="44.851" lon="4.20466">
        <ele>1366</ele>
        <time>2022-05-11T18:53:28Z</time>
      </trkpt>
      <trkpt lat="44.85125" lon="4.20497">
        <ele>1363</ele>
        <time>2022-05-11T18:53:28Z</time>
      </trkpt>
      <trkpt lat="44.8517" lon="4.20512">
        <ele>1360</ele>
      </trkpt>
      <trkpt lat="44.85214" lon="4.20527">
        <ele>1358</ele>
      </trkpt>
      <trkpt lat="44.85259" lon="4.20542">
        <ele>1356</ele>
      </trkpt>
      <trkpt lat="44.85303" lon="4.20557">
        <ele>1355</ele>
        <time>2022-05-11T18:53:28Z</time>
      </trkpt>
      <trkpt lat="44.85338" lon="4.20562">
        <ele>1355</ele>
      </trkpt>
      <trkpt lat="44.85373" lon="4.20567">
        <ele>1355</ele>
        <time>2022-05-11T18:53:28Z</time>
      </trkpt>
      <trkpt lat="44.85423" lon="4.20549">
        <ele>1355</ele>
        <time>2022-05-11T18:53:28Z</time>
      </trkpt>
      <trkpt lat="44.85466" lon="4.20479">
        <ele>1355</ele>
        <time>2022-05-11T18:53:28Z</time>
      </trkpt>
      <trkpt lat="44.85517" lon="4.20471">
        <ele>1356</ele>
        <time>2022-05-11T18:53:28Z</time>
      </trkpt>
      <trkpt lat="44.85545" lon="4.20444">
        <ele>1358</ele>
      </trkpt>
      <trkpt lat="44.85573" lon="4.20416">
        <ele>1362</ele>
        <time>2022-05-11T18:53:28Z</time>
      </trkpt>
      <trkpt lat="44.85605" lon="4.20359">
        <ele>1367</ele>
        <time>2022-05-11T18:53:28Z</time>
      </trkpt>
      <trkpt lat="44.85621" lon="4.20314">
        <ele>1370</ele>
      </trkpt>
      <trkpt lat="44.85637" lon="4.20268">
        <ele>1372</ele>
        <time>2022-05-11T18:53:28Z</time>
      </trkpt>
      <trkpt lat="44.85675" lon="4.20191">
        <ele>1373</ele>
      </trkpt>
      <trkpt lat="44.85713" lon="4.20114">
        <ele>1375</ele>
        <time>2022-05-11T18:53:28Z</time>
      </trkpt>
      <trkpt lat="44.85748" lon="4.20062">
        <ele>1376</ele>
      </trkpt>
      <trkpt lat="44.85783" lon="4.20009">
        <ele>1376</ele>
        <time>2022-05-11T18:53:28Z</time>
      </trkpt>
      <trkpt lat="44.85821" lon="4.19975">
        <ele>1377</ele>
      </trkpt>
      <trkpt lat="44.85858" lon="4.19941">
        <ele>1378</ele>
        <time>2022-05-11T18:53:28Z</time>
      </trkpt>
      <trkpt lat="44.85892" lon="4.19949">
        <ele>1379</ele>
        <time>2022-05-11T18:53:28Z</time>
      </trkpt>
      <trkpt lat="44.85882" lon="4.19978">
        <ele>1380</ele>
        <time>2022-05-11T18:53:28Z</time>
      </trkpt>
      <trkpt lat="44.85865" lon="4.20009">
        <ele>1379</ele>
        <time>2022-05-11T18:53:28Z</time>
      </trkpt>
      <trkpt lat="44.85871" lon="4.20077">
        <ele>1377</ele>
        <time>2022-05-11T18:53:28Z</time>
      </trkpt>
      <trkpt lat="44.85894" lon="4.20108">
        <ele>1374</ele>
        <time>2022-05-11T18:53:28Z</time>
      </trkpt>
      <trkpt lat="44.85941" lon="4.20158">
        <ele>1368</ele>
      </trkpt>
      <trkpt lat="44.85988" lon="4.20207">
        <ele>1362</ele>
        <time>2022-05-11T18:53:28Z</time>
      </trkpt>
      <trkpt lat="44.85998" lon="4.20269">
        <ele>1354</ele>
      </trkpt>
      <trkpt lat="44.86008" lon="4.20331">
        <ele>1343</ele>
      </trkpt>
      <trkpt lat="44.86017" lon="4.20393">
        <ele>1331</ele>
      </trkpt>
      <trkpt lat="44.86027" lon="4.20455">
        <ele>1318</ele>
        <time>2022-05-11T18:53:28Z</time>
      </trkpt>
      <trkpt lat="44.86052" lon="4.20515">
        <ele>1304</ele>
        <time>2022-05-11T18:53:28Z</time>
      </trkpt>
      <trkpt lat="44.86101" lon="4.20569">
        <ele>1287</ele>
      </trkpt>
      <trkpt lat="44.86149" lon="4.20622">
        <ele>1270</ele>
        <time>2022-05-11T18:53:28Z</time>
      </trkpt>
      <trkpt lat="44.86155" lon="4.20679">
        <ele>1254</ele>
      </trkpt>
      <trkpt lat="44.8616" lon="4.20735">
        <ele>1239</ele>
        <time>2022-05-11T18:53:28Z</time>
      </trkpt>
      <trkpt lat="44.86183" lon="4.20808">
        <ele>1222</ele>
      </trkpt>
      <trkpt lat="44.86205" lon="4.2088">
        <ele>1203</ele>
        <time>2022-05-11T18:53:28Z</time>
      </trkpt>
      <trkpt lat="44.86234" lon="4.20904">
        <ele>1188</ele>
        <time>2022-05-11T18:53:28Z</time>
      </trkpt>
      <trkpt lat="44.86281" lon="4.20912">
        <ele>1179</ele>
        <time>2022-05-11T18:53:28Z</time>
      </trkpt>
      <trkpt lat="44.86268" lon="4.20982">
        <ele>1171</ele>
        <time>2022-05-11T18:53:28Z</time>
      </trkpt>
      <trkpt lat="44.86235" lon="4.21028">
        <ele>1165</ele>
      </trkpt>
      <trkpt lat="44.86202" lon="4.21073">
        <ele>1159</ele>
        <time>2022-05-11T18:53:28Z</time>
      </trkpt>
      <trkpt lat="44.86187" lon="4.21116">
        <ele>1153</ele>
      </trkpt>
      <trkpt lat="44.86171" lon="4.21159">
        <ele>1147</ele>
        <time>2022-05-11T18:53:28Z</time>
      </trkpt>
      <trkpt lat="44.86157" lon="4.21225">
        <ele>1140</ele>
      </trkpt>
      <trkpt lat="44.86144" lon="4.21291">
        <ele>1133</ele>
      </trkpt>
      <trkpt lat="44.8613" lon="4.21357">
        <ele>1127</ele>
      </trkpt>
      <trkpt lat="44.86116" lon="4.21423">
        <ele>1119</ele>
        <time>2022-05-11T18:53:28Z</time>
      </trkpt>
      <trkpt lat="44.86089" lon="4.21428">
        <ele>1111</ele>
        <time>2022-05-11T18:53:28Z</time>
      </trkpt>
      <trkpt lat="44.86085" lon="4.21481">
        <ele>1107</ele>
      </trkpt>
      <trkpt lat="44.86081" lon="4.21534">
        <ele>1104</ele>
      </trkpt>
      <trkpt lat="44.86076" lon="4.21587">
        <ele>1102</ele>
      </trkpt>
      <trkpt lat="44.86072" lon="4.2164">
        <ele>1099</ele>
        <time>2022-05-11T18:53:28Z</time>
      </trkpt>
      <trkpt lat="44.86078" lon="4.21692">
        <ele>1097</ele>
      </trkpt>
      <trkpt lat="44.86083" lon="4.21744">
        <ele>1093</ele>
        <time>2022-05-11T18:53:28Z</time>
      </trkpt>
      <trkpt lat="44.86056" lon="4.21807">
        <ele>1088</ele>
        <time>2022-05-11T18:53:28Z</time>
      </trkpt>
      <trkpt lat="44.86065" lon="4.21901">
        <ele>1082</ele>
        <time>2022-05-11T18:53:28Z</time>
      </trkpt>
      <trkpt lat="44.86063" lon="4.21965">
        <ele>1078</ele>
      </trkpt>
      <trkpt lat="44.8606" lon="4.22029">
        <ele>1072</ele>
        <time>2022-05-11T18:53:28Z</time>
      </trkpt>
      <trkpt lat="44.86031" lon="4.22091">
        <ele>1067</ele>
        <time>2022-05-11T18:53:28Z</time>
      </trkpt>
      <trkpt lat="44.86015" lon="4.22154">
        <ele>1062</ele>
      </trkpt>
      <trkpt lat="44.85999" lon="4.22217">
        <ele>1055</ele>
        <time>2022-05-11T18:53:28Z</time>
      </trkpt>
      <trkpt lat="44.85961" lon="4.22284">
        <ele>1046</ele>
        <time>2022-05-11T18:53:28Z</time>
      </trkpt>
      <trkpt lat="44.85997" lon="4.22499">
        <ele>987</ele>
        <time>2022-05-11T18:53:28Z</time>
      </trkpt>
      <trkpt lat="44.85994" lon="4.22555">
        <ele>984</ele>
      </trkpt>
      <trkpt lat="44.8599" lon="4.22611">
        <ele>981</ele>
        <time>2022-05-11T18:53:28Z</time>
      </trkpt>
      <trkpt lat="44.85978" lon="4.22658">
        <ele>978</ele>
      </trkpt>
      <trkpt lat="44.85966" lon="4.22705">
        <ele>974</ele>
        <time>2022-05-11T18:53:28Z</time>
      </trkpt>
      <trkpt lat="44.85966" lon="4.22802">
        <ele>969</ele>
        <time>2022-05-11T18:53:28Z</time>
      </trkpt>
      <trkpt lat="44.85954" lon="4.22825">
        <ele>965</ele>
        <time>2022-05-11T18:53:28Z</time>
      </trkpt>
      <trkpt lat="44.85939" lon="4.22917">
        <ele>963</ele>
      </trkpt>
      <trkpt lat="44.85923" lon="4.23008">
        <ele>962</ele>
        <time>2022-05-11T18:53:28Z</time>
      </trkpt>
      <trkpt lat="44.85889" lon="4.23039">
        <ele>963</ele>
        <time>2022-05-11T18:53:28Z</time>
      </trkpt>
      <trkpt lat="44.85893" lon="4.23099">
        <ele>963</ele>
        <time>2022-05-11T18:53:28Z</time>
      </trkpt>
      <trkpt lat="44.8585" lon="4.23149">
        <ele>966</ele>
        <time>2022-05-11T18:53:28Z</time>
      </trkpt>
      <trkpt lat="44.85844" lon="4.23097">
        <ele>969</ele>
        <time>2022-05-11T18:53:28Z</time>
      </trkpt>
      <trkpt lat="44.85823" lon="4.2305">
        <ele>971</ele>
        <time>2022-05-11T18:53:28Z</time>
      </trkpt>
      <trkpt lat="44.85834" lon="4.22994">
        <ele>973</ele>
      </trkpt>
      <trkpt lat="44.85844" lon="4.22938">
        <ele>975</ele>
        <time>2022-05-11T18:53:28Z</time>
      </trkpt>
      <trkpt lat="44.85842" lon="4.22888">
        <ele>977</ele>
      </trkpt>
      <trkpt lat="44.8584" lon="4.22839">
        <ele>979</ele>
      </trkpt>
      <trkpt lat="44.85835" lon="4.22739">
        <ele>983</ele>
        <time>2022-05-11T18:53:28Z</time>
      </trkpt>
      <trkpt lat="44.85821" lon="4.22668">
        <ele>987</ele>
      </trkpt>
      <trkpt lat="44.85807" lon="4.22596">
        <ele>992</ele>
        <time>2022-05-11T18:53:28Z</time>
      </trkpt>
      <trkpt lat="44.85785" lon="4.22554">
        <ele>996</ele>
      </trkpt>
      <trkpt lat="44.85763" lon="4.22512">
        <ele>1000</ele>
        <time>2022-05-11T18:53:28Z</time>
      </trkpt>
      <trkpt lat="44.85729" lon="4.22493">
        <ele>1004</ele>
      </trkpt>
      <trkpt lat="44.85695" lon="4.22473">
        <ele>1007</ele>
        <time>2022-05-11T18:53:28Z</time>
      </trkpt>
      <trkpt lat="44.8563" lon="4.22463">
        <ele>1012</ele>
        <time>2022-05-11T18:53:28Z</time>
      </trkpt>
      <trkpt lat="44.85591" lon="4.22444">
        <ele>1018</ele>
        <time>2022-05-11T18:53:28Z</time>
      </trkpt>
      <trkpt lat="44.85561" lon="4.2241">
        <ele>1022</ele>
      </trkpt>
      <trkpt lat="44.8553" lon="4.22376">
        <ele>1026</ele>
        <time>2022-05-11T18:53:28Z</time>
      </trkpt>
      <trkpt lat="44.85497" lon="4.22363">
        <ele>1030</ele>
        <time>2022-05-11T18:53:28Z</time>
      </trkpt>
      <trkpt lat="44.85515" lon="4.22395">
        <ele>1034</ele>
        <time>2022-05-11T18:53:28Z</time>
      </trkpt>
      <trkpt lat="44.85546" lon="4.22423">
        <ele>1037</ele>
        <time>2022-05-11T18:53:28Z</time>
      </trkpt>
      <trkpt lat="44.85589" lon="4.22502">
        <ele>1040</ele>
        <time>2022-05-11T18:53:28Z</time>
      </trkpt>
      <trkpt lat="44.85636" lon="4.22567">
        <ele>1045</ele>
        <time>2022-05-11T18:53:28Z</time>
      </trkpt>
      <trkpt lat="44.85643" lon="4.22622">
        <ele>1048</ele>
        <time>2022-05-11T18:53:28Z</time>
      </trkpt>
      <trkpt lat="44.85623" lon="4.22676">
        <ele>1052</ele>
      </trkpt>
      <trkpt lat="44.85604" lon="4.2273">
        <ele>1055</ele>
      </trkpt>
      <trkpt lat="44.85584" lon="4.22784">
        <ele>1059</ele>
      </trkpt>
      <trkpt lat="44.85564" lon="4.22838">
        <ele>1061</ele>
        <time>2022-05-11T18:53:28Z</time>
      </trkpt>
      <trkpt lat="44.8556" lon="4.22776">
        <ele>1065</ele>
        <time>2022-05-11T18:53:28Z</time>
      </trkpt>
      <trkpt lat="44.85575" lon="4.22727">
        <ele>1068</ele>
      </trkpt>
      <trkpt lat="44.85589" lon="4.22677">
        <ele>1071</ele>
        <time>2022-05-11T18:53:28Z</time>
      </trkpt>
      <trkpt lat="44.85577" lon="4.22632">
        <ele>1074</ele>
        <time>2022-05-11T18:53:28Z</time>
      </trkpt>
      <trkpt lat="44.85519" lon="4.22588">
        <ele>1079</ele>
        <time>2022-05-11T18:53:28Z</time>
      </trkpt>
      <trkpt lat="44.85472" lon="4.22525">
        <ele>1084</ele>
        <time>2022-05-11T18:53:28Z</time>
      </trkpt>
      <trkpt lat="44.85428" lon="4.22507">
        <ele>1089</ele>
      </trkpt>
      <trkpt lat="44.85384" lon="4.22489">
        <ele>1094</ele>
        <time>2022-05-11T18:53:28Z</time>
      </trkpt>
      <trkpt lat="44.85335" lon="4.22455">
        <ele>1100</ele>
        <time>2022-05-11T18:53:28Z</time>
      </trkpt>
      <trkpt lat="44.85297" lon="4.22454">
        <ele>1106</ele>
      </trkpt>
      <trkpt lat="44.85258" lon="4.22452">
        <ele>1110</ele>
        <time>2022-05-11T18:53:28Z</time>
      </trkpt>
      <trkpt lat="44.85223" lon="4.2248">
        <ele>1113</ele>
      </trkpt>
      <trkpt lat="44.85188" lon="4.22507">
        <ele>1118</ele>
        <time>2022-05-11T18:53:28Z</time>
      </trkpt>
      <trkpt lat="44.85127" lon="4.22499">
        <ele>1123</ele>
        <time>2022-05-11T18:53:28Z</time>
      </trkpt>
      <trkpt lat="44.85062" lon="4.22529">
        <ele>1130</ele>
      </trkpt>
      <trkpt lat="44.84996" lon="4.22559">
        <ele>1136</ele>
        <time>2022-05-11T18:53:28Z</time>
      </trkpt>
      <trkpt lat="44.84967" lon="4.22551">
        <ele>1139</ele>
        <time>2022-05-11T18:53:28Z</time>
      </trkpt>
      <trkpt lat="44.85005" lon="4.22512">
        <ele>1142</ele>
        <time>2022-05-11T18:53:28Z</time>
      </trkpt>
      <trkpt lat="44.85039" lon="4.22439">
        <ele>1145</ele>
      </trkpt>
      <trkpt lat="44.85073" lon="4.22366">
        <ele>1147</ele>
        <time>2022-05-11T18:53:28Z</time>
      </trkpt>
      <trkpt lat="44.85039" lon="4.2231">
        <ele>1149</ele>
      </trkpt>
      <trkpt lat="44.85005" lon="4.22254">
        <ele>1151</ele>
        <time>2022-05-11T18:53:28Z</time>
      </trkpt>
      <trkpt lat="44.8499" lon="4.22209">
        <ele>1152</ele>
        <time>2022-05-11T18:53:28Z</time>
      </trkpt>
      <trkpt lat="44.84972" lon="4.22196">
        <ele>1153</ele>
        <time>2022-05-11T18:53:28Z</time>
      </trkpt>
      <trkpt lat="44.85028" lon="4.22178">
        <ele>1155</ele>
        <time>2022-05-11T18:53:28Z</time>
      </trkpt>
      <trkpt lat="44.85051" lon="4.22149">
        <ele>1156</ele>
        <time>2022-05-11T18:53:28Z</time>
      </trkpt>
      <trkpt lat="44.85078" lon="4.22131">
        <ele>1157</ele>
        <time>2022-05-11T18:53:28Z</time>
      </trkpt>
      <trkpt lat="44.85104" lon="4.22083">
        <ele>1158</ele>
      </trkpt>
      <trkpt lat="44.8513" lon="4.22034">
        <ele>1159</ele>
        <time>2022-05-11T18:53:28Z</time>
      </trkpt>
      <trkpt lat="44.8515" lon="4.21943">
        <ele>1161</ele>
        <time>2022-05-11T18:53:28Z</time>
      </trkpt>
      <trkpt lat="44.85161" lon="4.2192">
        <ele>1162</ele>
        <time>2022-05-11T18:53:28Z</time>
      </trkpt>
      <trkpt lat="44.85222" lon="4.21931">
        <ele>1164</ele>
      </trkpt>
      <trkpt lat="44.85283" lon="4.21941">
        <ele>1166</ele>
        <time>2022-05-11T18:53:28Z</time>
      </trkpt>
      <trkpt lat="44.85357" lon="4.21904">
        <ele>1175</ele>
        <time>2022-05-11T18:53:28Z</time>
      </trkpt>
      <trkpt lat="44.8538" lon="4.21868">
        <ele>1175</ele>
      </trkpt>
      <trkpt lat="44.85402" lon="4.21831">
        <ele>1176</ele>
        <time>2022-05-11T18:53:28Z</time>
      </trkpt>
      <trkpt lat="44.85433" lon="4.21808">
        <ele>1177</ele>
      </trkpt>
      <trkpt lat="44.85463" lon="4.21784">
        <ele>1177</ele>
        <time>2022-05-11T18:53:28Z</time>
      </trkpt>
      <trkpt lat="44.85463" lon="4.21702">
        <ele>1178</ele>
      </trkpt>
      <trkpt lat="44.85463" lon="4.21619">
        <ele>1179</ele>
        <time>2022-05-11T18:53:28Z</time>
      </trkpt>
      <trkpt lat="44.85468" lon="4.21571">
        <ele>1181</ele>
      </trkpt>
      <trkpt lat="44.85473" lon="4.21523">
        <ele>1182</ele>
      </trkpt>
      <trkpt lat="44.85477" lon="4.21474">
        <ele>1184</ele>
      </trkpt>
      <trkpt lat="44.85482" lon="4.21426">
        <ele>1184</ele>
        <time>2022-05-11T18:53:28Z</time>
      </trkpt>
      <trkpt lat="44.85477" lon="4.21344">
        <ele>1186</ele>
      </trkpt>
      <trkpt lat="44.85472" lon="4.21262">
        <ele>1187</ele>
        <time>2022-05-11T18:53:28Z</time>
      </trkpt>
      <trkpt lat="44.8545" lon="4.21197">
        <ele>1189</ele>
      </trkpt>
      <trkpt lat="44.85427" lon="4.21131">
        <ele>1190</ele>
        <time>2022-05-11T18:53:28Z</time>
      </trkpt>
      <trkpt lat="44.85407" lon="4.21118">
        <ele>1193</ele>
        <time>2022-05-11T18:53:28Z</time>
      </trkpt>
      <trkpt lat="44.85425" lon="4.21181">
        <ele>1195</ele>
      </trkpt>
      <trkpt lat="44.85443" lon="4.21244">
        <ele>1198</ele>
        <time>2022-05-11T18:53:28Z</time>
      </trkpt>
      <trkpt lat="44.85441" lon="4.21298">
        <ele>1201</ele>
      </trkpt>
      <trkpt lat="44.85438" lon="4.21351">
        <ele>1203</ele>
        <time>2022-05-11T18:53:28Z</time>
      </trkpt>
      <trkpt lat="44.85426" lon="4.21414">
        <ele>1205</ele>
      </trkpt>
      <trkpt lat="44.85414" lon="4.21476">
        <ele>1208</ele>
        <time>2022-05-11T18:53:28Z</time>
      </trkpt>
      <trkpt lat="44.85412" lon="4.21536">
        <ele>1211</ele>
      </trkpt>
      <trkpt lat="44.85409" lon="4.21596">
        <ele>1211</ele>
        <time>2022-05-11T18:53:28Z</time>
      </trkpt>
      <trkpt lat="44.85384" lon="4.21633">
        <ele>1214</ele>
      </trkpt>
      <trkpt lat="44.8536" lon="4.21671">
        <ele>1218</ele>
      </trkpt>
      <trkpt lat="44.85335" lon="4.21708">
        <ele>1220</ele>
      </trkpt>
      <trkpt lat="44.8531" lon="4.21745">
        <ele>1223</ele>
        <time>2022-05-11T18:53:28Z</time>
      </trkpt>
      <trkpt lat="44.85265" lon="4.21767">
        <ele>1226</ele>
      </trkpt>
      <trkpt lat="44.8522" lon="4.21789">
        <ele>1229</ele>
        <time>2022-05-11T18:53:28Z</time>
      </trkpt>
      <trkpt lat="44.85204" lon="4.21773">
        <ele>1232</ele>
        <time>2022-05-11T18:53:28Z</time>
      </trkpt>
      <trkpt lat="44.85157" lon="4.21703">
        <ele>1237</ele>
        <time>2022-05-11T18:53:28Z</time>
      </trkpt>
      <trkpt lat="44.85117" lon="4.21698">
        <ele>1240</ele>
      </trkpt>
      <trkpt lat="44.85076" lon="4.21693">
        <ele>1242</ele>
        <time>2022-05-11T18:53:28Z</time>
      </trkpt>
      <trkpt lat="44.85052" lon="4.2177">
        <ele>1244</ele>
      </trkpt>
      <trkpt lat="44.85028" lon="4.21847">
        <ele>1248</ele>
        <time>2022-05-11T18:53:28Z</time>
      </trkpt>
      <trkpt lat="44.84988" lon="4.21888">
        <ele>1251</ele>
        <time>2022-05-11T18:53:28Z</time>
      </trkpt>
      <trkpt lat="44.84969" lon="4.21922">
        <ele>1255</ele>
        <time>2022-05-11T18:53:28Z</time>
      </trkpt>
      <trkpt lat="44.8492" lon="4.2187">
        <ele>1258</ele>
        <time>2022-05-11T18:53:28Z</time>
      </trkpt>
      <trkpt lat="44.84871" lon="4.21859">
        <ele>1261</ele>
      </trkpt>
      <trkpt lat="44.84821" lon="4.21847">
        <ele>1264</ele>
        <time>2022-05-11T18:53:28Z</time>
      </trkpt>
      <trkpt lat="44.84802" lon="4.2193">
        <ele>1266</ele>
        <time>2022-05-11T18:53:28Z</time>
      </trkpt>
      <trkpt lat="44.84774" lon="4.21996">
        <ele>1268</ele>
      </trkpt>
      <trkpt lat="44.84745" lon="4.22061">
        <ele>1271</ele>
        <time>2022-05-11T18:53:28Z</time>
      </trkpt>
      <trkpt lat="44.8475" lon="4.22136">
        <ele>1275</ele>
        <time>2022-05-11T18:53:28Z</time>
      </trkpt>
      <trkpt lat="44.84781" lon="4.22209">
        <ele>1278</ele>
        <time>2022-05-11T18:53:28Z</time>
      </trkpt>
      <trkpt lat="44.84782" lon="4.22267">
        <ele>1282</ele>
      </trkpt>
      <trkpt lat="44.84782" lon="4.22324">
        <ele>1284</ele>
        <time>2022-05-11T18:53:28Z</time>
      </trkpt>
      <trkpt lat="44.84753" lon="4.22356">
        <ele>1286</ele>
      </trkpt>
      <trkpt lat="44.84723" lon="4.22387">
        <ele>1288</ele>
        <time>2022-05-11T18:53:28Z</time>
      </trkpt>
      <trkpt lat="44.84666" lon="4.224">
        <ele>1290</ele>
        <time>2022-05-11T18:53:28Z</time>
      </trkpt>
      <trkpt lat="44.84671" lon="4.2247">
        <ele>1291</ele>
        <time>2022-05-11T18:53:28Z</time>
      </trkpt>
      <trkpt lat="44.84633" lon="4.2253">
        <ele>1293</ele>
        <time>2022-05-11T18:53:28Z</time>
      </trkpt>
      <trkpt lat="44.8463" lon="4.22587">
        <ele>1294</ele>
      </trkpt>
      <trkpt lat="44.84626" lon="4.22643">
        <ele>1296</ele>
        <time>2022-05-11T18:53:28Z</time>
      </trkpt>
      <trkpt lat="44.84649" lon="4.2269">
        <ele>1298</ele>
      </trkpt>
      <trkpt lat="44.84671" lon="4.22737">
        <ele>1299</ele>
      </trkpt>
      <trkpt lat="44.84694" lon="4.22784">
        <ele>1300</ele>
      </trkpt>
      <trkpt lat="44.84716" lon="4.22831">
        <ele>1301</ele>
        <time>2022-05-11T18:53:28Z</time>
      </trkpt>
      <trkpt lat="44.84702" lon="4.22875">
        <ele>1303</ele>
      </trkpt>
      <trkpt lat="44.84687" lon="4.22919">
        <ele>1306</ele>
        <time>2022-05-11T18:53:28Z</time>
      </trkpt>
      <trkpt lat="44.84705" lon="4.22992">
        <ele>1310</ele>
        <time>2022-05-11T18:53:28Z</time>
      </trkpt>
      <trkpt lat="44.84763" lon="4.23037">
        <ele>1314</ele>
        <time>2022-05-11T18:53:28Z</time>
      </trkpt>
      <trkpt lat="44.84798" lon="4.23048">
        <ele>1318</ele>
      </trkpt>
      <trkpt lat="44.84833" lon="4.23058">
        <ele>1320</ele>
        <time>2022-05-11T18:53:28Z</time>
      </trkpt>
      <trkpt lat="44.84887" lon="4.23092">
        <ele>1324</ele>
        <time>2022-05-11T18:53:28Z</time>
      </trkpt>
      <trkpt lat="44.8493" lon="4.23071">
        <ele>1328</ele>
        <time>2022-05-11T18:53:28Z</time>
      </trkpt>
      <trkpt lat="44.8489" lon="4.23128">
        <ele>1332</ele>
        <time>2022-05-11T18:53:28Z</time>
      </trkpt>
      <trkpt lat="44.84828" lon="4.23109">
        <ele>1337</ele>
      </trkpt>
      <trkpt lat="44.84766" lon="4.23089">
        <ele>1340</ele>
        <time>2022-05-11T18:53:28Z</time>
      </trkpt>
      <trkpt lat="44.84746" lon="4.23071">
        <ele>1342</ele>
        <time>2022-05-11T18:53:28Z</time>
      </trkpt>
      <trkpt lat="44.84694" lon="4.23078">
        <ele>1346</ele>
        <time>2022-05-11T18:53:28Z</time>
      </trkpt>
      <trkpt lat="44.84658" lon="4.23026">
        <ele>1349</ele>
        <time>2022-05-11T18:53:28Z</time>
      </trkpt>
      <trkpt lat="44.84621" lon="4.22998">
        <ele>1352</ele>
        <time>2022-05-11T18:53:28Z</time>
      </trkpt>
      <trkpt lat="44.84618" lon="4.22907">
        <ele>1354</ele>
      </trkpt>
      <trkpt lat="44.84615" lon="4.22815">
        <ele>1357</ele>
        <time>2022-05-11T18:53:28Z</time>
      </trkpt>
      <trkpt lat="44.84585" lon="4.22763">
        <ele>1357</ele>
        <time>2022-05-11T18:53:28Z</time>
      </trkpt>
      <trkpt lat="44.84536" lon="4.22727">
        <ele>1361</ele>
      </trkpt>
      <trkpt lat="44.84486" lon="4.2269">
        <ele>1367</ele>
        <time>2022-05-11T18:53:28Z</time>
      </trkpt>
      <trkpt lat="44.84447" lon="4.22684">
        <ele>1372</ele>
        <time>2022-05-11T18:53:28Z</time>
      </trkpt>
      <trkpt lat="44.84422" lon="4.22703">
        <ele>1375</ele>
        <time>2022-05-11T18:53:28Z</time>
      </trkpt>
      <trkpt lat="44.84388" lon="4.22695">
        <ele>1391</ele>
        <time>2022-05-11T18:53:28Z</time>
      </trkpt>
      <trkpt lat="44.84345" lon="4.22703">
        <ele>1392</ele>
        <time>2022-05-11T18:53:28Z</time>
      </trkpt>
      <trkpt lat="44.84322" lon="4.227">
        <ele>1393</ele>
        <time>2022-05-11T18:53:28Z</time>
      </trkpt>
      <trkpt lat="44.84261" lon="4.22643">
        <ele>1394</ele>
        <time>2022-05-11T18:53:28Z</time>
      </trkpt>
      <trkpt lat="44.84224" lon="4.22596">
        <ele>1397</ele>
      </trkpt>
      <trkpt lat="44.84187" lon="4.22549">
        <ele>1400</ele>
        <time>2022-05-11T18:53:28Z</time>
      </trkpt>
      <trkpt lat="44.84174" lon="4.22492">
        <ele>1403</ele>
      </trkpt>
      <trkpt lat="44.8416" lon="4.22434">
        <ele>1405</ele>
      </trkpt>
      <trkpt lat="44.84147" lon="4.22377">
        <ele>1408</ele>
      </trkpt>
      <trkpt lat="44.84133" lon="4.22319">
        <ele>1410</ele>
        <time>2022-05-11T18:53:28Z</time>
      </trkpt>
      <trkpt lat="44.84133" lon="4.22256">
        <ele>1411</ele>
        <time>2022-05-11T18:53:28Z</time>
      </trkpt>
      <trkpt lat="44.8415" lon="4.22148">
        <ele>1413</ele>
      </trkpt>
      <trkpt lat="44.84167" lon="4.2204">
        <ele>1413</ele>
      </trkpt>
      <trkpt lat="44.84184" lon="4.21931">
        <ele>1414</ele>
      </trkpt>
      <trkpt lat="44.84201" lon="4.21823">
        <ele>1414</ele>
        <time>2022-05-11T18:53:28Z</time>
      </trkpt>
      <trkpt lat="44.84239" lon="4.21748">
        <ele>1415</ele>
      </trkpt>
      <trkpt lat="44.84277" lon="4.21672">
        <ele>1415</ele>
        <time>2022-05-11T18:53:28Z</time>
      </trkpt>
      <trkpt lat="44.84325" lon="4.21627">
        <ele>1415</ele>
        <time>2022-05-11T18:53:28Z</time>
      </trkpt>
      <trkpt lat="44.84295" lon="4.21729">
        <ele>1417</ele>
        <time>2022-05-11T18:53:28Z</time>
      </trkpt>
      <trkpt lat="44.84277" lon="4.21753">
        <ele>1418</ele>
        <time>2022-05-11T18:53:28Z</time>
      </trkpt>
      <trkpt lat="44.84268" lon="4.21813">
        <ele>1420</ele>
        <time>2022-05-11T18:53:28Z</time>
      </trkpt>
      <trkpt lat="44.84244" lon="4.21878">
        <ele>1422</ele>
        <time>2022-05-11T18:53:28Z</time>
      </trkpt>
      <trkpt lat="44.84252" lon="4.2192">
        <ele>1424</ele>
        <time>2022-05-11T18:53:28Z</time>
      </trkpt>
      <trkpt lat="44.84284" lon="4.2199">
        <ele>1434</ele>
        <time>2022-05-11T18:53:28Z</time>
      </trkpt>
      <trkpt lat="44.84302" lon="4.21967">
        <ele>1443</ele>
        <time>2022-05-11T18:53:28Z</time>
      </trkpt>
      <trkpt lat="44.84309" lon="4.21993">
        <ele>1451</ele>
        <time>2022-05-11T18:53:28Z</time>
      </trkpt>
      <trkpt lat="44.8432" lon="4.21998">
        <ele>1459</ele>
        <time>2022-05-11T18:53:28Z</time>
      </trkpt>
      <trkpt lat="44.8435" lon="4.2205">
        <ele>1473</ele>
        <time>2022-05-11T18:53:28Z</time>
      </trkpt>
      <trkpt lat="44.84388" lon="4.22034">
        <ele>1489</ele>
        <time>2022-05-11T18:53:28Z</time>
      </trkpt>
      <trkpt lat="44.84397" lon="4.22019">
        <ele>1501</ele>
        <time>2022-05-11T18:53:28Z</time>
      </trkpt>
      <trkpt lat="44.84394" lon="4.21982">
        <ele>1509</ele>
        <time>2022-05-11T18:53:28Z</time>
      </trkpt>
      <trkpt lat="44.8437" lon="4.21961">
        <ele>1511</ele>
        <time>2022-05-11T18:53:28Z</time>
      </trkpt>
      <trkpt lat="44.84356" lon="4.21935">
        <ele>1510</ele>
        <time>2022-05-11T18:53:28Z</time>
      </trkpt>
      <trkpt lat="44.84345" lon="4.21888">
        <ele>1504</ele>
        <time>2022-05-11T18:53:28Z</time>
      </trkpt>
      <trkpt lat="44.84309" lon="4.21891">
        <ele>1494</ele>
        <time>2022-05-11T18:53:28Z</time>
      </trkpt>
      <trkpt lat="44.84309" lon="4.21836">
        <ele>1481</ele>
        <time>2022-05-11T18:53:28Z</time>
      </trkpt>
      <trkpt lat="44.84289" lon="4.2181">
        <ele>1470</ele>
        <time>2022-05-11T18:53:28Z</time>
      </trkpt>
      <trkpt lat="44.8432" lon="4.21768">
        <ele>1461</ele>
        <time>2022-05-11T18:53:28Z</time>
      </trkpt>
      <trkpt lat="44.84329" lon="4.21659">
        <ele>1449</ele>
        <time>2022-05-11T18:53:28Z</time>
      </trkpt>
      <trkpt lat="44.84354" lon="4.21586">
        <ele>1413</ele>
        <time>2022-05-11T18:53:28Z</time>
      </trkpt>
    </trkseg>
  </trk>
</gpx>